Snyder, TX

8:35 AM CDT on September 25, 2016 (GMT -0500)
Winston

Weather History for KSNK - May, 2013

Change the Weather History Date:

Friday, May 17, 2013

  Actual Average Record
Temperature  
Mean Temperature 83 °F -  
Max Temperature 102 °F 87 °F 102 °F (2013)
Min Temperature 64 °F 57 °F 40 °F (1945)
Cooling Degree Days 18    
Growing Degree Days 33 (Base 50)    
Moisture  
Dew Point 33 °F    
Average Humidity 34    
Maximum Humidity 89    
Minimum Humidity 4    
Precipitation  
Precipitation 0.00 in - - ()
Sea Level Pressure  
Sea Level Pressure 29.81 in    
Wind  
Wind Speed 8 mph (South)    
Max Wind Speed 15 mph    
Max Gust Speed 23 mph    
Visibility 10 miles    
Events      
Averages and records for this station are not official NWS values.
T = Trace of Precipitation, MM = Missing Value Source: NWS Daily Summary

Daily Weather History Graph

Daily Weather History Graph

Search for Another Location

Airport or City:

Trip Planner

Search our weather history database for the weather conditions in past years. The results will help you decide how hot, cold, wet, or windy it might be!

Date:

Astronomy

May. 17, 2013 Rise Set
Actual Time 6:43 AM CDT 8:37 PM CDT
Civil Twilight 6:16 AM CDT 9:04 PM CDT
Nautical Twilight 5:43 AM CDT 9:37 PM CDT
Astronomical Twilight 5:08 AM CDT 10:12 PM CDT
Moon 1:08 PM CDT (5/17) 1:39 AM CDT (5/17)
Length of Visible Light 14h 48m
Length of Day
13h 53m
Waxing Crescent, 45% of the Moon is Illuminated
May 17
Waxing Crescent
May 17
First Quarter
May 24
Full
May 31
Last Quarter
Jun 8
New

Hourly Weather History & Observations

Time (CDT) Temp. Dew Point Humidity Pressure Visibility Wind Dir Wind Speed Gust Speed Precip Events Conditions
12:15 AM 77.0 °F 57.9 °F 52% 29.80 in 10.0 mi East 5.8 mph - N/A   Clear
12:35 AM 75.7 °F 58.6 °F 55% 29.80 in 10.0 mi NNE 6.9 mph - N/A   Clear
12:55 AM 74.5 °F 57.6 °F 55% 29.81 in 10.0 mi NE 5.8 mph - N/A   Clear
1:15 AM 74.5 °F 56.3 °F 53% 29.81 in 10.0 mi ENE 4.6 mph - N/A   Clear
1:35 AM 74.5 °F 57.6 °F 55% 29.81 in 10.0 mi NE 3.5 mph - N/A   Clear
1:55 AM 74.5 °F 59.4 °F 59% 29.80 in 10.0 mi East 4.6 mph - N/A   Clear
2:15 AM 74.5 °F 61.0 °F 63% 29.80 in 10.0 mi East 6.9 mph - N/A   Clear
2:35 AM 73.9 °F 63.0 °F 68% 29.80 in 10.0 mi ESE 3.5 mph - N/A   Clear
2:55 AM 72.7 °F 64.6 °F 76% 29.80 in 10.0 mi SE 6.9 mph - N/A   Clear
3:15 AM 72.0 °F 66.4 °F 83% 29.80 in 10.0 mi SSE 8.1 mph - N/A   Clear
3:35 AM 71.6 °F 66.7 °F 85% 29.80 in 10.0 mi SSE 6.9 mph - N/A   Clear
3:55 AM 71.8 °F 66.7 °F 84% 29.79 in 10.0 mi SSE 8.1 mph - N/A   Clear
4:15 AM 71.6 °F 66.7 °F 85% 29.79 in 10.0 mi SSE 5.8 mph - N/A   Clear
4:35 AM 69.8 °F 65.7 °F 87% 29.79 in 10.0 mi South 5.8 mph - N/A   Clear
4:55 AM 69.4 °F 65.8 °F 88% 29.80 in 10.0 mi South 6.9 mph - N/A   Clear
5:15 AM 69.4 °F 66.0 °F 89% 29.80 in 10.0 mi South 5.8 mph - N/A   Clear
5:35 AM 69.4 °F 66.2 °F 89% 29.80 in 10.0 mi South 6.9 mph - N/A   Clear
5:55 AM 69.1 °F 65.7 °F 89% 29.80 in 10.0 mi South 6.9 mph - N/A   Clear
6:15 AM 69.4 °F 65.5 °F 87% 29.80 in 10.0 mi South 6.9 mph - N/A   Clear
6:35 AM 67.6 °F 63.3 °F 86% 29.81 in 10.0 mi South 6.9 mph - N/A   Clear
7:15 AM 64.4 °F 61.0 °F 89% 29.83 in 10.0 mi South 6.9 mph - N/A   Clear
7:35 AM 65.3 °F 61.3 °F 87% 29.84 in 10.0 mi SSE 6.9 mph - N/A   Clear
7:55 AM 68.0 °F 62.4 °F 82% 29.84 in 10.0 mi South 5.8 mph - N/A   Clear
8:15 AM 69.6 °F 59.4 °F 70% 29.86 in 10.0 mi South 8.1 mph - N/A   Clear
8:35 AM 71.4 °F 57.6 °F 62% 29.86 in 10.0 mi South 10.4 mph - N/A   Clear
8:55 AM 73.9 °F 55.4 °F 52% 29.86 in 10.0 mi SSW 9.2 mph - N/A   Clear
9:15 AM 75.7 °F 51.8 °F 43% 29.86 in 10.0 mi SSW 10.4 mph - N/A   Clear
9:35 AM 78.1 °F 49.3 °F 36% 29.87 in 10.0 mi SSW 8.1 mph - N/A   Clear
9:55 AM 80.1 °F 46.6 °F 31% 29.87 in 10.0 mi SSW 9.2 mph - N/A   Clear
10:15 AM 81.7 °F 43.7 °F 26% 29.88 in 10.0 mi SW 11.5 mph - N/A   Clear
10:35 AM 83.3 °F 40.5 °F 22% 29.87 in 10.0 mi SW 11.5 mph - N/A   Clear
10:55 AM 86.7 °F 37.9 °F 18% 29.87 in 10.0 mi WSW 9.2 mph - N/A   Clear
11:15 AM 89.6 °F 35.4 °F 15% 29.87 in 10.0 mi SW 10.4 mph - N/A   Clear
11:35 AM 90.5 °F 27.9 °F 11% 29.87 in 10.0 mi SW 11.5 mph - N/A   Clear
11:55 AM 93.7 °F 26.6 °F 9% 29.87 in 10.0 mi SSW 8.1 mph - N/A   Clear
12:15 PM 94.6 °F 24.3 °F 8% 29.87 in 10.0 mi West 9.2 mph - N/A   Clear
12:35 PM 95.0 °F 20.7 °F 7% 29.86 in 10.0 mi WSW 9.2 mph - N/A   Clear
12:55 PM 96.4 °F 19.9 °F 6% 29.85 in 10.0 mi SW 9.2 mph - N/A   Clear
1:15 PM 97.3 °F 16.2 °F 5% 29.85 in 10.0 mi SW 9.2 mph - N/A   Clear
1:35 PM 98.6 °F 9.7 °F 4% 29.84 in 10.0 mi SSW 12.7 mph 19.6 mph N/A   Clear
2:15 PM 100.4 °F 0.9 °F 4% 29.84 in 10.0 mi SW 13.8 mph 17.3 mph N/A   Clear
2:35 PM 100.0 °F -3.1 °F 4% 29.83 in 10.0 mi SW 10.4 mph 19.6 mph N/A   Clear
2:55 PM 100.8 °F -5.3 °F 4% 29.82 in 10.0 mi WSW 3.5 mph 9.2 mph N/A   Clear
3:15 PM 100.9 °F -8.0 °F 4% 29.81 in 10.0 mi SW 12.7 mph 17.3 mph N/A   Clear
3:35 PM 101.8 °F -9.2 °F 4% 29.81 in 10.0 mi SW 15.0 mph 20.7 mph N/A   Clear
3:55 PM 102.0 °F -5.8 °F 4% 29.81 in 10.0 mi SW 8.1 mph 21.9 mph N/A   Clear
4:15 PM 101.7 °F -8.3 °F 4% 29.79 in 10.0 mi SW 10.4 mph 17.3 mph N/A   Clear
4:35 PM 101.7 °F -6.9 °F 4% 29.78 in 10.0 mi SW 5.8 mph 16.1 mph N/A   Clear
4:55 PM 102.0 °F -16.6 °F 4% 29.78 in 10.0 mi South 10.4 mph 23.0 mph N/A   Clear
5:15 PM 101.8 °F -15.7 °F 4% 29.77 in 10.0 mi SSW 4.6 mph - N/A   Clear
5:35 PM 101.3 °F -8.5 °F 4% 29.77 in 10.0 mi SSE 12.7 mph - N/A   Clear
5:55 PM 101.1 °F -6.5 °F 4% 29.77 in 10.0 mi South 11.5 mph 17.3 mph N/A   Clear
6:15 PM 101.8 °F -4.2 °F 4% 29.76 in 10.0 mi South 12.7 mph 17.3 mph N/A   Clear
6:35 PM 102.0 °F -7.4 °F 4% 29.76 in 10.0 mi South 13.8 mph - N/A   Clear
6:55 PM 100.9 °F -3.3 °F 4% 29.76 in 10.0 mi SSE 10.4 mph 16.1 mph N/A   Clear
7:15 PM 100.9 °F -2.7 °F 4% 29.76 in 10.0 mi SSW 10.4 mph 16.1 mph N/A   Clear
7:35 PM 99.9 °F 4.8 °F 4% 29.76 in 10.0 mi South 8.1 mph - N/A   Clear
7:55 PM 98.8 °F 12.6 °F 4% 29.77 in 10.0 mi South 10.4 mph 17.3 mph N/A   Clear
8:15 PM 97.2 °F 14.4 °F 5% 29.77 in 10.0 mi South 10.4 mph - N/A   Clear
8:35 PM 95.4 °F 16.2 °F 6% 29.78 in 10.0 mi South 6.9 mph - N/A   Clear
8:55 PM 94.1 °F 19.8 °F 7% 29.79 in 10.0 mi South 6.9 mph - N/A   Clear
9:15 PM 90.9 °F 21.4 °F 8% 29.79 in 10.0 mi SSE 6.9 mph - N/A   Clear
9:35 PM 89.6 °F 23.9 °F 9% 29.79 in 10.0 mi SSE 8.1 mph - N/A   Clear
9:55 PM 89.6 °F 26.6 °F 10% 29.80 in 10.0 mi SSE 6.9 mph - N/A   Clear
10:15 PM 87.6 °F 28.9 °F 12% 29.81 in 10.0 mi SSE 9.2 mph - N/A   Clear
10:35 PM 86.2 °F 32.9 °F 15% 29.81 in 10.0 mi SE 9.2 mph - N/A   Clear
10:55 PM 83.5 °F 34.0 °F 17% 29.82 in 10.0 mi SE 9.2 mph - N/A   Clear
11:35 PM 84.7 °F 37.4 °F 19% 29.84 in 10.0 mi SE 12.7 mph - N/A   Clear
11:55 PM 83.7 °F 38.1 °F 20% 29.84 in 10.0 mi SE 12.7 mph - N/A   Clear